******** Week 356 almanac for PRN-1 ******** ID: 1 Health: 0 Eccentricity: 0.001472473145 Time of Applicability(s): 319488 Orbital Inclination(rad): 0.95845876 Rate of Right Ascen(r/s): -7.783181343e-09 SQRT(A) (m 1/2): 5153.584473 Right Ascen at Week(rad): -2.645894029 Argument of Perigee(rad): 0.02541929005 Mean Anom(rad): -0.3435188189 Af0(s): 0.0002660470337 Af1(s/s): -3.637979e-12 week: 356 ******** Week 356 almanac for PRN-2 ******** ID: 2 Health: 0 Eccentricity: 0.01695823669 Time of Applicability(s): 319488 Orbital Inclination(rad): 0.9638816218 Rate of Right Ascen(r/s): -7.703178011e-09 SQRT(A) (m 1/2): 5153.560059 Right Ascen at Week(rad): -2.808478016 Argument of Perigee(rad): -0.8321744661 Mean Anom(rad): 1.073937478 Af0(s): 2.487125244e-05 Af1(s/s): 7.275958e-12 week: 356 ******** Week 356 almanac for PRN-3 ******** ID: 3 Health: 0 Eccentricity: 0.00638628006 Time of Applicability(s): 319488 Orbital Inclination(rad): 0.9927276511 Rate of Right Ascen(r/s): -7.806039438e-09 SQRT(A) (m 1/2): 5153.59375 Right Ascen at Week(rad): -1.659598685 Argument of Perigee(rad): 1.20540143 Mean Anom(rad): -2.536200171 Af0(s): 0.0004574803101 Af1(s/s): -1.091394e-11 week: 356 ******** Week 356 almanac for PRN-4 ******** ID: 4 Health: 0 Eccentricity: 0.003722190857 Time of Applicability(s): 319488 Orbital Inclination(rad): 0.9705208824 Rate of Right Ascen(r/s): -8.080336578e-09 SQRT(A) (m 1/2): 5153.69043 Right Ascen at Week(rad): -0.5883018558 Argument of Perigee(rad): -2.896690525 Mean Anom(rad): 0.4862164829 Af0(s): 3.316166992e-05 Af1(s/s): 3.637979e-12 week: 356 ******** Week 356 almanac for PRN-5 ******** ID: 5 Health: 0 Eccentricity: 0.005362987518 Time of Applicability(s): 319488 Orbital Inclination(rad): 0.9793232955 Rate of Right Ascen(r/s): -7.897471818e-09 SQRT(A) (m 1/2): 5153.641113 Right Ascen at Week(rad): -1.719027707 Argument of Perigee(rad): 1.420815251 Mean Anom(rad): 1.121158695 Af0(s): -0.0001808818359 Af1(s/s): 0 week: 356 ******** Week 356 almanac for PRN-6 ******** ID: 6 Health: 0 Eccentricity: 0.003873825073 Time of Applicability(s): 319488 Orbital Inclination(rad): 0.987394671 Rate of Right Ascen(r/s): -7.463168014e-09 SQRT(A) (m 1/2): 5153.581055 Right Ascen at Week(rad): -2.696088082 Argument of Perigee(rad): -0.5988075269 Mean Anom(rad): -1.181505634 Af0(s): -0.0004808442139 Af1(s/s): -3.637979e-12 week: 356 ******** Week 356 almanac for PRN-7 ******** ID: 7 Health: 0 Eccentricity: 0.02030134201 Time of Applicability(s): 319488 Orbital Inclination(rad): 0.9512382645 Rate of Right Ascen(r/s): -7.748894201e-09 SQRT(A) (m 1/2): 5153.588867 Right Ascen at Week(rad): 0.4201935154 Argument of Perigee(rad): -1.999773531 Mean Anom(rad): -2.072765325 Af0(s): -0.0001145584961 Af1(s/s): -3.637979e-12 week: 356 ******** Week 356 almanac for PRN-8 ******** ID: 8 Health: 0 Eccentricity: 0.01150369644 Time of Applicability(s): 319488 Orbital Inclination(rad): 0.9438320135 Rate of Right Ascen(r/s): -8.297488481e-09 SQRT(A) (m 1/2): 5153.612793 Right Ascen at Week(rad): 2.468379944 Argument of Perigee(rad): 0.5114863447 Mean Anom(rad): 0.7689797756 Af0(s): 0.0003919106445 Af1(s/s): -3.637979e-12 week: 356 ******** Week 356 almanac for PRN-9 ******** ID: 9 Health: 0 Eccentricity: 0.003322124481 Time of Applicability(s): 319488 Orbital Inclination(rad): 0.9646186516 Rate of Right Ascen(r/s): -8.183198006e-09 SQRT(A) (m 1/2): 5153.512695 Right Ascen at Week(rad): -0.652359036 Argument of Perigee(rad): 2.065181932 Mean Anom(rad): 1.372895204 Af0(s): 0.0006089688477 Af1(s/s): 0 week: 356 ******** Week 356 almanac for PRN-10 ******** ID: 10 Health: 0 Eccentricity: 0.01096582413 Time of Applicability(s): 319488 Orbital Inclination(rad): 0.9922782427 Rate of Right Ascen(r/s): -7.806039438e-09 SQRT(A) (m 1/2): 5153.602539 Right Ascen at Week(rad): -1.662107508 Argument of Perigee(rad): -2.259541717 Mean Anom(rad): 2.766620489 Af0(s): -0.0004635097046 Af1(s/s): -3.637979e-12 week: 356 ******** Week 356 almanac for PRN-11 ******** ID: 11 Health: 0 Eccentricity: 0.002224445343 Time of Applicability(s): 319488 Orbital Inclination(rad): 0.9642411485 Rate of Right Ascen(r/s): -7.714607058e-09 SQRT(A) (m 1/2): 5153.518066 Right Ascen at Week(rad): -2.676723447 Argument of Perigee(rad): -2.288650276 Mean Anom(rad): -0.1560331103 Af0(s): -0.0003557342773 Af1(s/s): 1.455192e-11 week: 356 ******** Week 356 almanac for PRN-12 ******** ID: 12 Health: 0 Eccentricity: 0.00906085968 Time of Applicability(s): 319488 Orbital Inclination(rad): 0.9587943183 Rate of Right Ascen(r/s): -8.034620388e-09 SQRT(A) (m 1/2): 5153.732422 Right Ascen at Week(rad): 1.537946069 Argument of Perigee(rad): 1.550537744 Mean Anom(rad): -2.70094806 Af0(s): -0.0004800905395 Af1(s/s): 0 week: 356 ******** Week 356 almanac for PRN-13 ******** ID: 13 Health: 0 Eccentricity: 0.009949684143 Time of Applicability(s): 319488 Orbital Inclination(rad): 0.9762493419 Rate of Right Ascen(r/s): -7.966046103e-09 SQRT(A) (m 1/2): 5153.62207 Right Ascen at Week(rad): -0.4776275387 Argument of Perigee(rad): 0.999404213 Mean Anom(rad): 0.5061488705 Af0(s): 0.0005433991821 Af1(s/s): 0 week: 356 ******** Week 356 almanac for PRN-14 ******** ID: 14 Health: 0 Eccentricity: 0.006583690643 Time of Applicability(s): 319488 Orbital Inclination(rad): 0.9421482299 Rate of Right Ascen(r/s): -8.206056101e-09 SQRT(A) (m 1/2): 5153.589844 Right Ascen at Week(rad): 1.483702845 Argument of Perigee(rad): -2.759048331 Mean Anom(rad): -2.886022318 Af0(s): 0.000578821875 Af1(s/s): 3.637979e-12 week: 356 ******** Week 356 almanac for PRN-15 ******** ID: 15 Health: 0 Eccentricity: 0.01660871506 Time of Applicability(s): 319488 Orbital Inclination(rad): 0.9423699381 Rate of Right Ascen(r/s): -8.434637051e-09 SQRT(A) (m 1/2): 5153.623047 Right Ascen at Week(rad): -0.7957682633 Argument of Perigee(rad): 1.496628207 Mean Anom(rad): -0.2339125959 Af0(s): 0.0003029770752 Af1(s/s): 3.637979e-12 week: 356 ******** Week 356 almanac for PRN-16 ******** ID: 16 Health: 0 Eccentricity: 0.01505994797 Time of Applicability(s): 319488 Orbital Inclination(rad): 0.9579374462 Rate of Right Ascen(r/s): -8.057478483e-09 SQRT(A) (m 1/2): 5153.577637 Right Ascen at Week(rad): 1.554975653 Argument of Perigee(rad): 0.9254240946 Mean Anom(rad): 1.780046512 Af0(s): 0.0001590252808 Af1(s/s): 7.275958e-12 week: 356 ******** Week 356 almanac for PRN-17 ******** ID: 17 Health: 0 Eccentricity: 0.01274013519 Time of Applicability(s): 319488 Orbital Inclination(rad): 0.9596152377 Rate of Right Ascen(r/s): -8.126052768e-09 SQRT(A) (m 1/2): 5153.518066 Right Ascen at Week(rad): 2.57265843 Argument of Perigee(rad): -1.128805754 Mean Anom(rad): 0.6748170989 Af0(s): -4.220576172e-05 Af1(s/s): -1.091394e-11 week: 356 ******** Week 356 almanac for PRN-18 ******** ID: 18 Health: 0 Eccentricity: 0.005705833435 Time of Applicability(s): 319488 Orbital Inclination(rad): 0.9723484767 Rate of Right Ascen(r/s): -7.634603726e-09 SQRT(A) (m 1/2): 5153.601074 Right Ascen at Week(rad): -2.700749946 Argument of Perigee(rad): -2.859660768 Mean Anom(rad): -1.3089133 Af0(s): -0.000342921814 Af1(s/s): 1.091394e-11 week: 356 ******** Week 356 almanac for PRN-19 ******** ID: 19 Health: 0 Eccentricity: 0.01103210449 Time of Applicability(s): 319488 Orbital Inclination(rad): 0.958830271 Rate of Right Ascen(r/s): -8.103194673e-09 SQRT(A) (m 1/2): 5153.654785 Right Ascen at Week(rad): 2.616559267 Argument of Perigee(rad): 2.921660781 Mean Anom(rad): 2.519075088 Af0(s): 0.0005441528564 Af1(s/s): 0 week: 356 ******** Week 356 almanac for PRN-20 ******** ID: 20 Health: 255 Eccentricity: 0.0004906654358 Time of Applicability(s): 319488 Orbital Inclination(rad): 0.9596152377 Rate of Right Ascen(r/s): -8.217485148e-09 SQRT(A) (m 1/2): 5153.593262 Right Ascen at Week(rad): -0.646687127 Argument of Perigee(rad): 1.069078624 Mean Anom(rad): 0.4633505818 Af0(s): 0 Af1(s/s): 0 week: 356 ******** Week 356 almanac for PRN-21 ******** ID: 21 Health: 0 Eccentricity: 0.0006461143494 Time of Applicability(s): 319488 Orbital Inclination(rad): 0.9621618855 Rate of Right Ascen(r/s): -8.114623721e-09 SQRT(A) (m 1/2): 5153.696777 Right Ascen at Week(rad): -1.652558327 Argument of Perigee(rad): -0.4355700249 Mean Anom(rad): -2.89885892 Af0(s): 0.0003105138184 Af1(s/s): 7.275958e-12 week: 356 ******** Week 356 almanac for PRN-22 ******** ID: 22 Health: 0 Eccentricity: 0.01216888428 Time of Applicability(s): 319488 Orbital Inclination(rad): 0.9573741876 Rate of Right Ascen(r/s): -8.068907531e-09 SQRT(A) (m 1/2): 5153.570312 Right Ascen at Week(rad): 1.558321873 Argument of Perigee(rad): -0.9951992481 Mean Anom(rad): 1.325453777 Af0(s): -3.994473877e-05 Af1(s/s): 3.637979e-12 week: 356 ******** Week 356 almanac for PRN-23 ******** ID: 23 Health: 0 Eccentricity: 0.006009101868 Time of Applicability(s): 319488 Orbital Inclination(rad): 0.987286813 Rate of Right Ascen(r/s): -7.851755628e-09 SQRT(A) (m 1/2): 5153.65332 Right Ascen at Week(rad): -1.694085539 Argument of Perigee(rad): -2.740876876 Mean Anom(rad): -2.424195979 Af0(s): 0.0004808442139 Af1(s/s): 3.637979e-12 week: 356 ******** Week 356 almanac for PRN-24 ******** ID: 24 Health: 0 Eccentricity: 0.01785850525 Time of Applicability(s): 319488 Orbital Inclination(rad): 0.9352692848 Rate of Right Ascen(r/s): -7.988904198e-09 SQRT(A) (m 1/2): 5153.604004 Right Ascen at Week(rad): 0.3122032902 Argument of Perigee(rad): 1.131584971 Mean Anom(rad): -1.091161431 Af0(s): -0.0001070217529 Af1(s/s): 1.455192e-11 week: 356 ******** Week 356 almanac for PRN-25 ******** ID: 25 Health: 0 Eccentricity: 0.0129532814 Time of Applicability(s): 319488 Orbital Inclination(rad): 0.947163628 Rate of Right Ascen(r/s): -8.137481816e-09 SQRT(A) (m 1/2): 5153.677734 Right Ascen at Week(rad): 1.444372866 Argument of Perigee(rad): 1.153437081 Mean Anom(rad): -2.851981876 Af0(s): 0.0003519659058 Af1(s/s): -3.637979e-12 week: 356 ******** Week 356 almanac for PRN-26 ******** ID: 26 Health: 0 Eccentricity: 0.01099300385 Time of Applicability(s): 319488 Orbital Inclination(rad): 0.9279648997 Rate of Right Ascen(r/s): -8.286059433e-09 SQRT(A) (m 1/2): 5153.643066 Right Ascen at Week(rad): 1.370296125 Argument of Perigee(rad): 0.7054824834 Mean Anom(rad): 2.605981691 Af0(s): -0.0002547419189 Af1(s/s): -7.275958e-12 week: 356 ******** Week 356 almanac for PRN-27 ******** ID: 27 Health: 0 Eccentricity: 0.01427173614 Time of Applicability(s): 319488 Orbital Inclination(rad): 0.9529580008 Rate of Right Ascen(r/s): -8.206056101e-09 SQRT(A) (m 1/2): 5153.604492 Right Ascen at Week(rad): 2.500177089 Argument of Perigee(rad): 0.8723755485 Mean Anom(rad): 0.8637057108 Af0(s): -2.637860107e-05 Af1(s/s): -7.275958e-12 week: 356 ******** Week 356 almanac for PRN-28 ******** ID: 28 Health: 0 Eccentricity: 0.0004062652588 Time of Applicability(s): 319488 Orbital Inclination(rad): 0.9622038303 Rate of Right Ascen(r/s): -7.691748963e-09 SQRT(A) (m 1/2): 5153.736328 Right Ascen at Week(rad): 0.3941675239 Argument of Perigee(rad): 0.2185600548 Mean Anom(rad): -1.935258703 Af0(s): -0.0004748148193 Af1(s/s): 7.275958e-12 week: 356 ******** Week 356 almanac for PRN-29 ******** ID: 29 Health: 0 Eccentricity: 0.003297805786 Time of Applicability(s): 319488 Orbital Inclination(rad): 0.9622697435 Rate of Right Ascen(r/s): -8.080336578e-09 SQRT(A) (m 1/2): 5153.716309 Right Ascen at Week(rad): 2.589300024 Argument of Perigee(rad): 2.743267354 Mean Anom(rad): 0.7377009486 Af0(s): -0.0003014697266 Af1(s/s): 7.275958e-12 week: 356 ******** Week 356 almanac for PRN-30 ******** ID: 30 Health: 0 Eccentricity: 0.007951259613 Time of Applicability(s): 319488 Orbital Inclination(rad): 0.9364916757 Rate of Right Ascen(r/s): -7.908900866e-09 SQRT(A) (m 1/2): 5153.726074 Right Ascen at Week(rad): 0.4115742361 Argument of Perigee(rad): -2.336235139 Mean Anom(rad): -2.205210485 Af0(s): 8.74262207e-05 Af1(s/s): 1.091394e-11 week: 356 ******** Week 356 almanac for PRN-31 ******** ID: 31 Health: 0 Eccentricity: 0.01084375381 Time of Applicability(s): 319488 Orbital Inclination(rad): 0.954995319 Rate of Right Ascen(r/s): -7.748894201e-09 SQRT(A) (m 1/2): 5153.725586 Right Ascen at Week(rad): 0.4442952897 Argument of Perigee(rad): 0.934635095 Mean Anom(rad): 3.128040744 Af0(s): -0.000133400354 Af1(s/s): 3.637979e-12 week: 356 ******** Week 356 almanac for PRN-32 ******** ID: 32 Health: 0 Eccentricity: 0.009259700775 Time of Applicability(s): 319488 Orbital Inclination(rad): 0.9676926053 Rate of Right Ascen(r/s): -8.137481816e-09 SQRT(A) (m 1/2): 5153.66748 Right Ascen at Week(rad): -0.635444426 Argument of Perigee(rad): -2.014050862 Mean Anom(rad): 1.459669606 Af0(s): -8.591887207e-05 Af1(s/s): 1.818989e-11 week: 356